CST,Max TemperatureF,Mean TemperatureF,Min TemperatureF,Max Dew PointF,MeanDew PointF,Min DewpointF,Max Humidity, Mean Humidity, Min Humidity, Max Sea Level PressureIn, Mean Sea Level PressureIn, Min Sea Level PressureIn, Max VisibilityMiles, Mean VisibilityMiles, Min VisibilityMiles, Max Wind SpeedMPH, Mean Wind SpeedMPH, Max Gust SpeedMPH,PrecipitationIn, CloudCover, Events, WindDirDegrees
2014-2-1,14,2,-11,3,-5,-18,79,69,57,30.06,29.90,29.85,10,8,1,9,2,17,0.00,6,Snow,289
2014-2-2,10,-4,-18,0,-10,-26,77,64,52,30.15,30.10,30.07,10,10,10,14,4,21,0.00,4,,248
2014-2-3,17,3,-11,3,-6,-17,85,68,53,30.26,30.13,30.07,10,10,7,8,4,16,0.00,1,,279
2014-2-4,10,3,-4,-4,-8,-15,78,63,52,30.39,30.35,30.26,10,10,10,9,6,17,0.00,1,Snow,323
2014-2-5,3,-1,-5,-9,-12,-17,66,60,55,30.40,30.37,30.29,10,10,10,10,6,17,0.00,3,,320
2014-2-6,5,-3,-11,-9,-14,-20,77,63,51,30.29,30.12,29.95,10,10,10,16,7,25,0.00,0,,256
2014-2-7,14,4,-5,-6,-10,-15,78,57,38,30.04,29.93,29.88,10,10,10,18,10,24,0.00,0,Snow,247
2014-2-8,15,0,-16,1,-10,-24,77,56,38,30.08,30.04,29.99,10,10,10,8,3,,0.00,1,,297
2014-2-9,5,-2,-9,-9,-15,-18,65,56,43,30.25,30.15,30.06,10,10,10,10,5,20,0.00,1,,310
2014-2-10,6,-6,-18,-11,-18,-26,71,60,44,30.35,30.31,30.25,10,10,10,8,2,,0.00,2,,295
2014-2-11,12,-4,-20,3,-10,-29,77,63,48,30.34,30.15,29.93,10,9,4,17,6,25,0.00,2,Snow,218
2014-2-12,17,12,8,5,-1,-6,79,59,42,30.01,29.93,29.78,10,8,2,12,6,16,0.00,3,Snow,275
2014-2-13,21,11,1,14,7,-8,86,74,62,29.77,29.54,29.39,10,6,0,16,8,25,0.09,5,Snow,51
2014-2-14,15,4,-7,0,-7,-15,78,64,49,29.93,29.82,29.65,10,10,10,9,4,,0.00,0,,331
2014-2-15,12,2,-9,7,-1,-17,79,74,62,30.03,29.89,29.79,10,8,0,13,3,17,0.01,7,Snow,64
2014-2-16,10,2,-5,3,-3,-13,79,73,67,30.23,30.14,30.04,10,6,1,14,6,21,0.00,5,Snow,56
2014-2-17,21,14,8,16,11,3,86,81,79,30.05,29.76,29.64,10,5,0,15,7,23,0.14,8,Snow,85
2014-2-18,42,22,3,28,17,-2,86,73,57,29.65,29.54,29.46,10,8,3,10,2,,0.00,2,,258
2014-2-19,42,32,21,19,18,16,80,61,39,29.71,29.66,29.59,10,10,5,16,8,22,0.00,1,,278
2014-2-20,30,26,23,25,21,18,86,77,64,29.73,29.51,29.10,10,6,0,16,10,24,0.35,7,Snow,48
2014-2-21,28,16,3,25,7,-6,86,71,61,29.49,29.20,29.03,10,4,1,22,11,34,0.24,5,Snow,286
2014-2-22,15,9,3,1,-3,-6,72,62,53,29.87,29.69,29.50,10,8,1,20,13,31,0.00,1,Snow,271
2014-2-23,15,8,0,0,-4,-8,72,62,45,30.05,29.96,29.87,10,9,3,17,10,26,0.00,2,Snow,277
2014-2-24,14,6,-2,-2,-7,-11,72,59,48,30.15,30.11,30.05,10,10,5,12,6,21,0.00,1,Snow,288
2014-2-25,5,-4,-13,-11,-16,-20,71,57,46,30.14,30.11,30.07,10,10,7,14,7,24,0.00,1,,290
2014-2-26,10,-2,-13,-2,-14,-24,71,58,43,30.09,29.68,29.42,10,8,1,20,10,29,0.00,4,Snow,275
2014-2-27,-2,-14,-25,-22,-29,-36,58,46,32,30.06,29.99,29.78,10,10,7,12,6,23,0.00,0,,307
2014-2-28,8,-8,-23,-8,-18,-35,66,56,40,30.05,29.91,29.80,10,10,5,13,3,16,0.00,4,,245